DMSP 5D-2 F13 DEB, 40508

Orbit data source: Space-Track

DMSP 5D-2 F13 DEB, 40508 is space debris in SSO originally from a launch on Fri, 24 Mar 1995 UTC launched from the Air Force Western Test Range (AFWTR). Debris objects in space refer to the collection of defunct objects orbiting the Earth. Examples of debris include non-operational satellites, rocket bodies, and fragments generated from explosions, collisions, or faulty payload assembly.

Loading next visibility...
Identifier
40508, 1995-015CU
Orbit
SSO
Country
Flag of USUS
Related business
Manufacturer
Unknown
Mission
Spacecraft
Bus & Motor
Unknown
Mass
Unknown
Launch date (UTC)
1995-03-24 (31 years ago)
Launch vehicle
Unknown
Launch site
Air Force Western Test Range (AFWTR)
Object type
Payload
Rocket body
Debris
Shape & HBR
Unknown shape, 0.1 m
Radar Cross Section
Small (<0.1 m²)

Expand to show TLE details & history
Last TLE update: 18 hours ago

TLE from 18 hours ago
0 DMSP 5D-2 F13 DEB
1 40508U 95015CU  25301.47960153  .00004825  00000-0  22525-2 0  9990
2 40508  99.0366 312.2712 0047883  60.3520 300.2412 14.20234066544953
Epoch: 2025-10-28T11:30Z
TLE epoch observation values (Epoch: 2025-10-28T11:30:37.572Z)
Latitude
0.00001°
Longitude
102.54815°
Altitude
810.216 km
Speed
7.457 km/s
True Right ascension
20h 49m 05s
True Declination
0° 00' 00"
Sunlit
Object was in daylight at epoch
Visualization orbit readout
Latitude
Unknown
Longitude
Unknown
Altitude
Unknown
Speed
Unknown
Apparent Right ascension
Unknown
Apparent Declination
Unknown
Sunlit
N/A
Visualization observer readout
Local Sidereal Time
00:39:03
Azimuth
Unknown
Elevation
Unknown
Doppler factor
Unknown
Orbital elements
Apogee altitude
856.211 km
Perigee altitude
787.26 km
Semi-major axis
7,199.872 km
Eccentricity
0.00479
Inclination
99.0366°
RAAN
312.2712°
Arg. of periapsis
60.352°
True anomaly
299.76574°
Mean anomaly
300.2412°
Eccentric anomaly
300.00362°
Mean motion
3.55268 °/min
Orbital period
101.33 mins
BSTAR
0.0022525

Documentation

Showing up to 5 results
|